Location: Newark
(13.8117°N, 3.6025°W)
Time: 05:54:41
(UTC+00:00)

Explorer 11/Cluster Stage 4 - Pass Details

Date: 30 August 2019
Orbit: 467 x 1260 km, 28.8° (Epoch: 17 September)

Event Time Altitude Azimuth Distance (km) Brightness Sun altitude
Rises 10:04:27 0° 299° (WNW) 3,796 9.8 57.6°
Reaches altitude 10° 10:07:35 10° 312° (NW) 2,958 9.4 58.4°
Maximum altitude 10:13:40 26° 6° (N) 2,156 9.2 59.9°
Drops below altitude 10° 10:20:14 10° 60° (ENE) 3,221 10.2 61.5°
Sets 10:23:48 0° 72° (ENE) 4,198 10.7 62.3°
